[Date Prev][Date Next][Thread Prev][Thread Next][Date Index][Thread Index]

[jamsat-news:1241] jas2info #178



========================   最新情報   ==============================

        Last updated :Sat.18-Mar.-2000 14:30 (JST) #178

====================================================================
   
  1)アマチュア通信衛星情報 FOシリーズの軌道要素、テレメトリ、
   QSOの状況等をまとめてみました.
   
   FO−29の3月18日(土)のテレメトリはJARLのホームページの
  運用予定のとうり12:27(JST)のパスではアナログ系運用になって
  おりました.CW信号で12:28〜12:43(JST)に受信できました.
  現在まで、当局で取得したデータの1部を掲載しておきます.
    
 AS17698C1  18Mar2000
 12:28-12:43(JST)
 Freq.435.805-.786MHz

 HI HI AE C7 88 55 1B 2C FF 0D 00 2E 4C 4A 8E 51 96 92 B0 81 BD B8 BC BE BB 
 HI HI AE C7 88 55 00 2C 1E 0D 00 2E 74 3F 92 60 93 90 B0 8D BD B8 BC BD BA 
 HI HI AE C7 88 55 05 2C FF 1E 00 2E 92 70 87 45 94 92 B0 89 BD B8 BC BE BB 
 HI HI AE C7 88 55 0A 2C FF 0D 00 2E 5B 4D 8E 60 93 91 B0 90 BD B8 BC BD BB 
 HI HI AE C7 88 55 0F 2C FF 0D 00 2E 78 3A 96 60 92 90 A0 82 BC B7 BB BD BB 
 HI HI AE C7 88 55 14 2C FF 0D 00 2E 8E 5A 8C 61 94 92 B0 7B BC B7 BB BD BB 
 HI HI AE C7 88 55 19 2C FF 0D 00 2E 68 3E 8F 60 93 91 B0 89 BC B7 BB BD BB 
 HI HI AE C7 88 55 1E 2C FF 0D 00 2E 7F 37 9A 60 93 91 B1 7F BC B7 BB BD BB 
 HI HI AE C7 88 55 03 2C FF 0D 00 2E 85 43 8D 60 93 90 B0 6B BC B7 BB BD BB 
 HI HI AE 07 88 55 08 2C FF 05 00 2E 70 2F 91 60 92 90 B1 83 BC B7 BA BD BB 
 HI HI AE 07 88 55 0C 2C FF 0D 00 2E 7C 38 9B 60 93 90 B0 84 BC B6 BA BD BB 
 HI HI AE C7 88 55 12 2C FF 0D 00 2E 75 33 89 60 93 91 B0 8A BC B6 BA BD BB 
 HI HI AE C7 88 55 18 2C FF 0D 00 2E 70 28 8B 60 93 91 B0 86 BC B6 BA BD BB 
 HI HI AE C7 88 55 1D 2C FF 0D 00 2E 99 40 91 61 94 92 B0 94 BC B6 BA BC BB 
 HI HI AE C7 88 55 02 2C FF 0D 00 2E 62 2A 80 60 92 90 9F 7B BB B6 BA BC BN 
 HI HI AE C7 88 55 07 2C FF 1E 00 2E 69 2D 8B 60 92 91 B0 88 BB B6 B9 BC BB 
 HI HI AE C7 88 55 0C 2C FF 0D 00 2E A6 45 8E 60 94 91 B0 82 BB B5 B9 BC BB 
 HI HI AE C7 88 55 11 2C FF 0D 00 2E 2B 32 7D 60 93 90 B0 80 BB B5 B9 BC BB 
 HI HI AE C7 88 55 16 2C FF 0D 00 2E 5E 3F 8C 60 93 91 B0 60 BB B5 B9 BC BB 
 HI HI AE C7 88 55 1B 2C FF 0D 00 2E B1 50 8C 60 92 57 B0 6A BB B5 B9 BC BB 
 HI HI AE C7 88 55 01 2C FF 0D 00 2E 44 34 7D 4A 94 92 B0 77 BB B5 B8 BB BB 
 
 AS17697C1  18Mar2000
 10:46-10:57(JST)
 Freq.435.803-.787MHz

 HI HI AE C7 88 55 0A 2C FF 0D 00 2E 6F 3D 8C 60 93 91 B0 C4 BB B8 BC BC BB 
 HI HI AE C7 88 55 11 2C FF 0D 00 2E 6A 58 83 60 93 91 B0 7F BB B8 BC BC BB 
 HI HI AE C7 88 55 16 2C FF 0D 00 2E 6D 4F 7F 60 93 91 B0 83 BB B8 BC BC BB 
 HI HI AE C7 88 55 1B 2C FF 0D 00 2E 7E 3F 93 60 93 91 B0 82 BB B8 BB BC BB 
 HI HI AE C7 88 55 00 2C FF 0D 00 2E 84 57 87 60 93 91 B0 92 BB B8 BB BC BB 
 HI HI AE C7 88 55 06 2C FF 0D 00 2E 6C 3D 7B 61 94 91 B0 81 BB B8 BB BC BB 
 HI HI AE C7 88 55 0B 2C FF 0D 00 2E 8E 42 90 5F 92 90 9F 97 BB B7 BB BC BB 
 HI HI AE C7 88 55 10 2C 0A 0D 00 2E 7C 59 87 60 92 90 B0 87 BB B7 BB BC BB 
 HI HI AE C7 88 55 15 2C FF 0D 00 2E 64 2A 78 60 94 91 B0 8E BB B7 BB BC BB 
 HI HI AE C7 88 55 1A 2C FF 1E 00 2E 9C 47 90 60 92 90 B0 7E BB B6 BA BB BB 
 HI HI AE C7 88 55 1F 2C FF 0D 00 2E 7A 60 8C 60 93 90 B0 8E BB B6 BA BC BB 
 HI HI AE C7 88 55 04 2C FF 0D 00 2E 54 23 7C 60 92 90 9F 9F BB B6 BA BB BB 
 HI HI AE C7 88 55 09 2C FF 0D 00 2E A5 4B 91 60 92 90 B0 91 BB B6 BA BC BB 
 HI HI AE C7 88 55 0E 2C 0A 0D 00 2E 7A 6B 94 60 92 90 B0 89 BA B6 BA BB BB 
 HI HI AE C7 88 55 13 2C FF 0D 00 2E 41 25 7E 5F 92 90 9F 86 BA B6 B9 BB BB 
 HI HI AE C7 88 55 18 2C FF 0D 00 2E A6 53 8F 60 93 91 B0 92 BA B5 B9 BB BB 
 HI HI AE C7 78 55 1D 2C FF 1A 00 2E 92 69 93 60 93 90 B0 82 BA B5 B9 BB BB

 AS17685C1  17Mar2000
 13:26-13:37(JST)
                                                           O BC BC BD BA BB 
 HI HI AE C7 88 55 18 2C FF 0D 00 2E 45 57 78 60 93 90 B0 80 BB BC BD B9 BB 
 HI HI AE C7 88 55 1D 2C 1E 0D 00 2E 5A 4B 7B 60 92 92 A1 7E BB BC BD B9 BB 
 HI HI AE C7 88 55 02 2C FF 0D 00 2E 79 3B 8B 41 94 92 B0 7A BB BC BD B9 BB 
 HI HI AE C7 88 55 07 2C FF 0D 00 2E 49 45 86 61 94 91 B0 8D BB BC BC B9 BB 
 HI HI AE C7 88 55 0C 2C FF 0D 00 2E 5D 36 84 60 93 91 B0 7C BB BC BC B9 BB 
 HI HI AE C7 88 55 11 2C FF 0D 00 2E 69 33 93 61 93 91 B0 77 BB BC BC B9 BB 
 HI HI AE C7 88 55 17 2C FF 0D 00 2E 4F 35 88 60 93 91 B0 5F BA BB BC B9 BB 
 HI HI AE C7 88 55 1C 2C FF 0D 00 2E 68 2E 93 61 94 92 B0 84 BA BB BC B9 BB 
 HI HI AE C7 88 55 01 2C FF 0D 00 2E 67 32 98 60 92 90 B0 7E BA BB BC B9 BB 
 HI HI AE C7 88 55 06 2C FF 0D 00 2E 59 28 80 60 93 90 B0 88 BA BB BC B9 BB 
 HI HI AE C7 88 55 0B 2C FF 0D 00 2E 77 30 91 60 93 91 B0 7B BA BB BC B8 BB 
 HI HI AE C7 88 55 10 2C 0A 0D 00 2E 44 3A 91 60 92 90 B0 67 BA BA BB B8 BB 
 HI HI AE C7 88 55 15 2C FF 0D 00 2E 68 20 76 60 93 91 B0 AF BA BA BB B8 BB 
 HI HI AE C7 88 55 1A 2C FF 0D 00 2E 87 43 8B 60 92 90 B0 71 B9 BA BB B8 BB 
 HI HI AE C7 88 55 00 2C FF 0D 00 2E 35 43 8E 60 93 91 B0 86 B9 BA BB B8 BB 
 HI HI AE C7 88 55 05 2C FF 0D 00 2E 75 51 74 60 92 90 B0 86 B9 BA BB B8 BB 
 HI HI AE C7 88 55 0A 2C FF 1A 00 2E 9E 

------------------------- FO-29の軌道要素 ------------------------------        
 
  ■ 軌道要素1:「jamsat−keps:975」より              
            SB KEPS @ AMSAT  $ORB00077.N
                  2Line Orbital Elements 00077.AMSAT

 HR AMSAT ORBITAL ELEMENTS FOR AMATEUR SATELLITES IN NASA FORMAT
 FROM WA5QGD FORT WORTH,TX March 17, 2000
 SEND SUBSCRIBE/UNSUBSCRIBE TO majordomo@amsat.org ONLY
 BID: ORB00077.N

  DECODE 2-LINE ELSETS WITH THE FOLLOWING KEY:
  1 AAAAAU 00  0  0 BBBBB.BBBBBBBB  .CCCCCCCC  00000-0  00000-0 0  DDDZ
  2 AAAAA EEE.EEEE FFF.FFFF GGGGGGG HHH.HHHH III.IIII JJ.JJJJJJJJKKKKKZ
  KEY: A-CATALOGNUM B-EPOCHTIME C-DECAY D-ELSETNUM E-INCLINATION F-RAAN
  G-ECCENTRICITY H-ARGPERIGEE I-MNANOM J-MNMOTION K-ORBITNUM Z-CHECKSUM

  TO ALL RADIO AMATEURS BT

 FO-29
 1 24278U 96046B   00076.22076320  .00000047  00000-0  81089-4 0  3156
 2 24278  98.5900 356.2756 0352254 107.5059 256.4896 13.52702842176725

 ■ 軌道要素2:「jamsat−keps:976」より                         
         SB KEPS @ AMSAT  $ORB00077.O
             Orbital Elements  00077.OSCAR

 HR AMSAT ORBITAL ELEMENTS FOR OSCAR SATELLITES
 FROM WA5QGD FORT WORTH,TX March 17, 2000
 SEND SUBSCRIBE/UNSUBSCRIBE TO majordomo@amsat.org ONLY
 BID: ORB00077.O
 TO ALL RADIO AMATEURS BT

  Satellite: FO-29
 Catalog number: 24278
 Epoch time:      00076.22076320
 Element set:     315
 Inclination:       98.5900 deg
 RA of node:       356.2756 deg
 Eccentricity:    0.0352254
 Arg of perigee:   107.5059 deg
 Mean anomaly:     256.4896 deg
 Mean motion:   13.52702842 rev/day
 Decay rate:        4.7e-07 rev/day^2
 Epoch rev:           17672
 Checksum:              310
-------------------  FO-29(JAS-2)のテレメトリに関する情報  ----------------------
 
 2)上記の3月18日(土)の12:27(JST)のパスのディジタル・テレメトリの
  最後の行の分析結果です.

  AS17698C1  18Mar2000
  12:28-12:43(JST)
  Freq.435.805-.786MHz

 HI HI AE C7 88 55 01 2C FF 0D 00 2E 44 34 7D 4A 94 92 B0 77 BB B5 B8 BB BB 
 
 テレメトリ	内   容		換算値	単 位 
 3C	磁気センサーZ軸 =	33333.3	[nT]
 3D	磁気センサX軸	=	25490.2	[nT]
 4A	太陽電池発生電流 =	 1225.5	[mA]
 4B	B充放電電流	=	 -549.6	[mA]
 4C	B端子電圧	=	   15.9	[V]
 4D	B中間端子電圧	=	    7.0	[V]
 5A	バス電圧 	=	   17.3	[V]
 5B	JTA送信電力	=	  675.4	[mW]
 5C 	構体温度1	=	    9.3	[℃]
 5D	構体温度2	=	   11.6	[℃]
 6A	構体温度3	=	   10.4	[℃]
 6B	構体温度4	=           9.3	[℃]
 6C	Bセル温度	=	    9.3	[℃]
  
  * OSはWindows 2000,Office 2000 にて計算処理.

--------------------------  FO−29,FO‐20のQSO情報 -------------------------
 
 3)[jamsat-bb:5160]FO-20/FO-29にJN1GKZの新井 氏が投稿されていましたので
   転載させて頂きました.
  
  3月16日(木)23:47 JST頃、東京から見るとFO-20とFO-29の方位角が同じになりま
 す。仰角は違いますが、同時にFO-20とFO-29にアップリンクすることができそうです。

  ダウンリンクがどう聞こえるか興味あるところです。

  JN1GKZ 新井
    jn1gkz@jamsat.or.jp     http://www.din.or.jp/~m-arai/
 
 ==================================================================================

  4)JARL のホームページに運用予定が記載されていましたのでご紹介します.
       ( http://www.jarl.or.jp/Japanese/3_Fuji/new/uy.htm )

        ■ ふじ3号/FOー29/JAS-2 ■  
   
     *** 運用予定について ***
    
  03月11日 〜 03月20日 アナログ系運用 
   03月21日 〜 03月24日 デジタル系1200bpsメールボックス運用 
   03月25日 〜 04月02日 アナログ系運用   

 *なお,運用予定は都合により変更することがありますのでご了承願います。

 照会先 : lab@jarl.or.jp

 最新の情報はテレホンサービス(03−3942−1000)をお聞きください。  
 以後の運用につきましては3月下旬にお知らせいたします。

-----------------------    FO−20(JAS-1b)道要素   -------------------------
  5)
  ■ 軌道要素1 :出典はFO-29「ふじ3号」に同じ.
  
  FO-20
 1 20480U 90013C   00074.88710677  .00000025  00000-0  13639-3 0  2111
 2 20480  99.0370 223.0128 0539832 268.8743  85.0504 12.83264990473189

  ■ 軌道要素2 :出典はFO−29「ふじ3号」に同じ.
               
  Satellite: FO-20
  Catalog number: 20480
  Epoch time:      00074.88710677
  Element set:     211
  Inclination:       99.0370 deg
  RA of node:       223.0128 deg
  Eccentricity:    0.0539832
  Arg of perigee:   268.8743 deg
  Mean anomaly:      85.0504 deg
  Mean motion:   12.83264990 rev/day
  Decay rate:        2.5e-07 rev/day^2
  Epoch rev:           47318
  Checksum:              296

 --------------------------------------------------------------------------------
 6)         ■ ふじ2号/FO−20/JAS-1b ■      
            
          「ふじ2号」 現況                                                                                  
             
   JAS-1b(ふじ2号)のCWテレメトリ信号に,1997年10月12日12時(JST)の
 日本上空通過時,3桁の数字が繰り返されるはずが3個の長音の繰り返しとなっているという
 異常が発見されました。この不具合は次の通過時からは回復していましたが13日15時20分の
 通過時に再び観測されました。現在はA0の送信が続いています。衛星のアナログ系中継モード
 動作は異常が無く,正常時のテレメトリ内容からは衛星の動作に異常は認められません。従って,
 直ちに衛星のミッションに影響することは無いと予想されますので,当面はアナログ系中継
 モードを継続します。衛星は既に打ち上げてから7年8ヶ月を経ておりますので,今後は監視を
 強化する予定です。アマチュア各位のレポートをお待ちします。
 -------------------------------------------------------------------------------- 
  1997年10月14日 00時35分 確認のテレメトリ音 151 KB (A0) 
  1997年10月14日 11時10分 確認のテレメトリ音 216 KB (異常キーイング) 

  以上 JARLのホ−ムページの http://www.jarl.or.jp/Japanese/3_Fuji/new/fuji.htm
                                           
   =============   JAS-2 (ふじ3号)と現在までの情報   ===========
  
  A.電話によるふじ3号の運用情報
      社団法人日本アマチュア連盟によるサービス
           TEL .   03− 3942 − 1000
  B.アマチュア無線FAXサービス
      JARLによるふじ3号の軌道情報(オービットカレンダー)
         FAX No.  03− 3233 −0055
  C.WWWブラウザで情報を簡単に見れる人のためにJAS−2
     ふじ3号の衛星としての運用されるまでの名前)の概要、打ち上げ
     までの状況、運用中における状況を説明したホームページを紹介し
     ておきます.
     社団法人日本アマチュア無線連盟(JARL)のホームページ

          http://www.jarl.or.jp/Japanese/3_Fuji/jasmenu.htm
 
     宇宙開発事業団(NASDA)ホームページ 
          http://www.nasda.go.jp/
         打上げ衛星 :地球観測プラットフォーム技術衛星(ADEOS) 
                       アマチュア衛星3号(JAS-2)
          http://yyy.tksc.nasda.go.jp/Home/Press/Press-j/jas-2_j.html        

  D.JAMSATによる軌道情報の活用
        JAMSATのホームページまたはjamsat−kepsの軌道要素より
      衛星の軌道情報を得る.
     JAMSATホームページ
               URL    http://www.jamsat.or.jp
       上記ホームページでは各地で行われるアマチュア通信衛星に関する
      ミューティングのお知らせや世界のアマチュア衛星に関する情報が
      満載されています.
 ========================================================================  
     JAMSATのメンバーのご協力によりJH6MME(高山 秀造)が
    執筆・編集を担当しております.ご指摘の意見、疑問やこのようにしたら
    というアイデアがありましたら小さなことでもかまいませんので気軽に下
    記アドレスまでご連絡ください.jamsat−newsからjas2
    infoへの転載をJH4PHW局坂井さんに担当して頂いております.  
                  E-mail : jh6mme@jamsat.or.jp : jh4phw@jamsat.or.jp
 ===============================   END  ===============================